Regional Weather Roundup
Issued by NWS

Home | Current Version | Previous Version | Text Only | Print | Product List | Glossary Off
Versions: 1 2 3 4 5 6 7 8 9 10 11 12 13 14 15 16 17 18 19 20 21 22 23 24 25 26 27 28 29 30 31 32 33 34 35 36 37 38 39 40 41 42 43 44 45 46 47 48 49 50

629
ASUS45 KCYS 181110
RWRWY

WYOMING REGIONAL WEATHER ROUNDUP
NATIONAL WEATHER SERVICE CHEYENNE WY
400 AM MST WED JAN 18 2017

NOTE:  "FAIR" INDICATES FEW OR NO CLOUDS BELOW 12,000 FEET
WITH NO SIGNIFICANT WEATHER AND/OR OBSTRUCTIONS TO VISIBILITY.

WYZ001-181200-
YELLOWSTONE NATIONAL PARK

CITY           SKY/WX    TMP DP  RH WIND       PRES   REMARKS
LK YELLOWSTONE   N/A     -8 -11  86 CALM      30.07F
W YELLOWSTONE  NOT AVBL

$$
WYZ002>013-054>058-071-098>099-181200-
NORTHERN WYOMING

CITY           SKY/WX    TMP DP  RH WIND       PRES   REMARKS
JACKSON        FAIR      -9 -11  92 N8        30.14S WCI -26
CODY           FAIR      13   5  70 NE3       29.86F
GREYBULL       FAIR      -2  -7  79 CALM      29.93F
WORLAND        FAIR       3   0  87 S5        29.90F WCI  -6
SHERIDAN       FAIR      15  10  80 S9        29.77F WCI   3
BUFFALO        FAIR      21  14  74 N3        29.80F
GILLETTE       FAIR      34  17  50 SW24G31   29.80F WCI  21
HULETT         FAIR      28  18  64 MISG      29.83F
NEWCASTLE      FAIR      27  12  54 E9        29.91F WCI  17

$$
WYZ014>020-022>026-101>103-181200-
CENTRAL WYOMING

CITY           SKY/WX    TMP DP  RH WIND       PRES   REMARKS
BIG PINEY      FAIR     -11 -16  78 CALM      30.09F
PINEDALE       FAIR     -13 -18  77 NW3       30.09S
DUBOIS         NOT AVBL
LANDER         FAIR       9   6  88 CALM      29.98F
RIVERTON       FAIR       0  -3  87 CALM      30.00F
CASPER         FAIR      32  13  45 SW24G32   29.94F WCI  19
DOUGLAS        FAIR      19  12  74 CALM      29.92F

$$
WYZ021-027>030-104>119-181200-
SOUTHERN WYOMING

CITY           SKY/WX    TMP DP  RH WIND       PRES   REMARKS
EVANSTON       FAIR      12   3  67 S7        30.08F WCI   1
ROCK SPRINGS   FAIR       0  -5  79 CALM      30.09F
RAWLINS        FAIR       4  -1  80 CALM      30.08F
LARAMIE        FAIR       2  -2  83 CALM      30.02F
CHEYENNE       FAIR      29  11  47 W14       29.94F WCI  18
TORRINGTON     FAIR      23  13  65 CALM      29.95S

$$




USA.gov is the U.S. government's official web portal to all federal, state and local government web resources and services.